Home   Weather   Sopron   Past weeks

Flag for Hungary Past Weather in Sopron, Hungary — Yesterday and Last 2 Weeks

Now
51 °F

Overcast.


Feels Like: 49 °F
Forecast: 43 / 55 °F
Wind: 6 mph from West

Location: Eisenstadt

Current Time: Feb 21, 2017 at 5:48:31 pm

Latest Report: Feb 21, 2017 at 4:00 pm


Visibility: 6 mi

Pressure: 29.87 "Hg

Humidity: 80%

Dew Point: 45 °F

Location of SopronLocation

Past Weather in Sopron — Graph

°F

Sopron Temperature Yesterday

Maximum temperature yesterday: 49 °F (at 4:00 pm)
Minimum temperature yesterday: 29 °F (at 7:00 am)
Average temperature yesterday: 36 °F

High & Low Weather Summary for the Past Weeks

 TemperatureHumidityPressure
High51 °F (Feb 21, 4:00 pm)99% (Feb 16, 8:00 am)30.63 "Hg (Feb 16, 8:00 am)
Low27 °F (Feb 9, 5:00 am)52% (Feb 15, 2:00 pm)29.87 "Hg (Feb 21, 4:00 pm)
Average34 °F81%30.34 "Hg
* Reported Feb 6 4:00 pm — Feb 21 4:00 pm, Sopron, Weather by CustomWeather, © 2017

Note: Actual official high and low records may vary slightly from our data, if they occured in-between our weather recording intervals... More about our weather records

Advertising

Sopron Weather History for the Previous 24 Hours

Scroll right to see more
 ConditionsComfort  
Time TempWeatherWind HumidityBarometerVisibility
4:00 pm
Tue, Feb 21
51 °FOvercast.6 mph80%29.87 "Hg6 mi
3:00 pm50 °FFog.6 mph85%29.88 "HgN/A
2:00 pm51 °FFog.7 mph82%29.88 "HgN/A
1:00 pm50 °FLight rain. Overcast.6 mph85%29.88 "Hg6 mi
12:00 pm50 °FFog.6 mph83%29.89 "HgN/A
11:00 am50 °FFog.6 mph83%29.90 "HgN/A
10:00 am47 °FLight rain. Overcast.2 mph93%29.90 "Hg9 mi
9:00 am47 °FFog.1 mph87%29.90 "HgN/A
8:00 am48 °FCool.3 mph78%29.89 "HgN/A
7:00 am41 °FScattered clouds.1 mph92%29.90 "Hg9 mi
6:00 am40 °FOvercast.No wind96%29.90 "Hg6 mi
5:00 am39 °FOvercast.No wind96%29.94 "Hg6 mi
4:00 am42 °FLight rain. Overcast.2 mph96%29.96 "Hg6 mi
3:00 am41 °FFog.1 mph93%29.97 "HgN/A
2:00 am39 °FFog.3 mph80%29.99 "HgN/A
1:00 am40 °FChilly.2 mph89%30.01 "HgN/A
12:00 am39 °FChilly.1 mph75%30.03 "HgN/A
11:00 pm
Mon, Feb 20
36 °FChilly.2 mph80%30.05 "HgN/A
10:00 pm37 °FClear.3 mph81%30.07 "Hg9 mi
9:00 pm38 °FChilly.2 mph81%30.09 "HgN/A
8:00 pm38 °FChilly.3 mph79%30.10 "HgN/A
7:00 pm38 °FClear.2 mph77%30.12 "Hg9 mi
6:00 pm43 °FQuite cool.1 mph69%30.12 "HgN/A
5:00 pm49 °FCool.3 mph56%30.11 "HgN/A
Weather by CustomWeather, © 2017

See weather overviewHow to use our weather pages